Longview, TX

3:53 PM CDT on October 22, 2017 (GMT -0500)
Gregg County

Weather History for KGGG - August, 2013

Change the Weather History Date:

Saturday, August 24, 2013

  Actual Average Record
Temperature  
Mean Temperature 87 °F 82 °F  
Max Temperature 99 °F 94 °F 104 °F (1938)
Min Temperature 74 °F 71 °F 61 °F (1931)
Degree Days  
Heating Degree Days 0 0  
Month to date heating degree days 0 0  
Since 1 June heating degree days 0 0  
Since 1 July heating degree days 0 0  
Cooling Degree Days 22 17  
Month to date cooling degree days 486 436  
Year to date cooling degree days 1942 1826  
Since 1 June cooling degree days 1554 1447  
Growing Degree Days 36 (Base 50)    
Moisture  
Dew Point 68 °F    
Average Humidity 59    
Maximum Humidity 84    
Minimum Humidity 33    
Precipitation  
Precipitation 0.00 in 0.10 in 2.25 in (1942)
Month to date precipitation 1.06 2.31  
Year to date precipitation 20.33 29.94  
Snow  
Snow 0.00 in - - ()
Month to date snowfall 0.0  
Since 1 June snowfall 0.0  
Since 1 July snowfall 0.0  
Snow Depth 0.00 in    
Sea Level Pressure  
Sea Level Pressure 30.00 in    
Wind  
Wind Speed 6 mph (East)    
Max Wind Speed 17 mph    
Max Gust Speed 24 mph    
Visibility 10 miles    
Events      
T = Trace of Precipitation, MM = Missing Value Source: NWS Daily Summary

Daily Weather History Graph

Daily Weather History Graph

Search for Another Location

Airport or City:

Trip Planner

Search our weather history database for the weather conditions in past years. The results will help you decide how hot, cold, wet, or windy it might be!

Date:

Astronomy

Aug. 24, 2013 Rise Set
Actual Time 6:48 AM CDT 7:52 PM CDT
Civil Twilight 6:23 AM CDT 8:18 PM CDT
Nautical Twilight 5:53 AM CDT 8:48 PM CDT
Astronomical Twilight 5:22 AM CDT 9:19 PM CDT
Moon 10:06 PM CDT (8/24) 10:32 AM CDT (8/24)
Length of Visible Light 13h 54m
Length of Day
13h 03m
Waning Gibbous, 84% of the Moon is Illuminated
Aug 24
Waning Gibbous
Aug 28
Last Quarter
Sep 5
New
Sep 12
First Quarter
Sep 19
Full

Hourly Weather History & Observations

Time (CDT) Temp. Heat Index Dew Point Humidity Pressure Visibility Wind Dir Wind Speed Gust Speed Precip Events Conditions
12:53 AM 81.0 °F 84.1 °F 69.1 °F 67% 29.97 in 10.0 mi East 3.5 mph - N/A   Clear
1:53 AM 80.1 °F 82.9 °F 69.1 °F 69% 29.97 in 10.0 mi SE 8.1 mph - N/A   Clear
2:53 AM 79.0 °F - 69.1 °F 72% 29.97 in 10.0 mi ESE 3.5 mph - N/A   Clear
3:53 AM 77.0 °F - 69.1 °F 76% 29.97 in 10.0 mi Calm Calm - N/A   Clear
4:53 AM 75.0 °F - 69.1 °F 82% 29.98 in 10.0 mi ENE 5.8 mph - N/A   Clear
5:53 AM 73.9 °F - 68.0 °F 82% 30.00 in 10.0 mi East 3.5 mph - N/A   Clear
6:53 AM 73.9 °F - 68.0 °F 82% 30.01 in 10.0 mi NE 3.5 mph - N/A   Clear
7:53 AM 77.0 °F - 70.0 °F 79% 30.03 in 10.0 mi Calm Calm - N/A   Clear
8:53 AM 81.0 °F 84.9 °F 71.1 °F 72% 30.05 in 10.0 mi Variable 3.5 mph - N/A   Clear
9:53 AM 87.1 °F 94.5 °F 73.0 °F 63% 30.05 in 10.0 mi NE 3.5 mph - N/A   Clear
10:53 AM 90.0 °F 96.9 °F 72.0 °F 55% 30.06 in 10.0 mi Calm Calm - N/A   Clear
11:53 AM 93.0 °F 99.0 °F 70.0 °F 47% 30.04 in 10.0 mi East 10.4 mph - N/A   Scattered Clouds
12:53 PM 93.9 °F 100.3 °F 70.0 °F 46% 30.02 in 10.0 mi NNE 4.6 mph - N/A   Mostly Cloudy
1:53 PM 95.0 °F 99.0 °F 66.9 °F 40% 30.00 in 10.0 mi SE 6.9 mph 17.3 mph N/A   Mostly Cloudy
2:53 PM 98.1 °F 101.8 °F 66.0 °F 35% 29.98 in 10.0 mi ESE 11.5 mph 17.3 mph N/A   Clear
3:53 PM 97.0 °F 99.3 °F 64.0 °F 34% 29.96 in 10.0 mi East 9.2 mph 17.3 mph N/A   Scattered Clouds
4:53 PM 98.1 °F 100.7 °F 64.0 °F 33% 29.96 in 10.0 mi East 13.8 mph 18.4 mph N/A   Scattered Clouds
5:53 PM 97.0 °F 98.3 °F 63.0 °F 32% 29.96 in 10.0 mi East 12.7 mph - N/A   Clear
6:53 PM 95.0 °F 97.0 °F 64.0 °F 36% 29.96 in 10.0 mi ESE 10.4 mph 20.7 mph N/A   Clear
7:53 PM 91.0 °F 92.6 °F 64.0 °F 41% 29.97 in 10.0 mi East 5.8 mph - N/A   Clear
8:53 PM 87.1 °F 88.3 °F 64.0 °F 46% 29.99 in 10.0 mi East 4.6 mph - N/A   Clear
9:53 PM 84.9 °F 87.1 °F 66.0 °F 53% 30.02 in 10.0 mi ESE 3.5 mph - N/A   Clear
10:53 PM 84.0 °F 86.3 °F 66.0 °F 55% 30.02 in 10.0 mi East 5.8 mph - N/A   Clear
11:53 PM 82.9 °F 85.4 °F 66.9 °F 58% 30.04 in 10.0 mi ESE 5.8 mph - N/A   Clear